{"data":{"norad_id":55051,"epoch":"2026-09-21T19:52:00.326784Z","epoch_age_seconds":50448,"freshness":"FRESH","line1":"1 55051U 23001AU  26264.82778156  .00004368  00000+0  15461-3 0  9996","line2":"2 55051  97.5714   2.8343 0015221  36.5972 323.6304 15.29589434206104","mean_motion":15.29589434,"eccentricity":0.0015221,"inclination_deg":97.5714,"raan_deg":2.8343,"arg_perigee_deg":36.5972,"mean_anomaly_deg":323.6304,"bstar":0.00015461,"rev_number":20610,"period_min":94.142909724101,"perigee_km":466.60445287497,"apogee_km":487.4729787891,"semimajor_km":6855.175715832,"source":"CELESTRAK","updated_at":"2026-09-22T09:00:25.267873Z"}}